TimeCST,TemperatureF,Dew PointF,Humidity,Sea Level PressureIn,VisibilityMPH,Wind Direction,Wind SpeedMPH,Gust SpeedMPH,PrecipitationIn,Events,Conditions,WindDirDegrees,DateUTC
12:01 AM,35.6,33.8,93,30.08,10.0,NNW,4.6,-,N/A,,Clear,340,2012-11-20 06:01:00
12:21 AM,35.6,32.0,87,30.09,10.0,NNW,8.1,-,N/A,,Clear,340,2012-11-20 06:21:00
12:41 AM,35.6,32.0,87,30.10,10.0,North,4.6,-,N/A,,Clear,350,2012-11-20 06:41:00
1:01 AM,35.6,32.0,87,30.09,10.0,North,4.6,-,N/A,,Clear,350,2012-11-20 07:01:00
1:21 AM,35.6,32.0,87,30.10,10.0,North,4.6,-,N/A,,Clear,350,2012-11-20 07:21:00
1:41 AM,35.6,32.0,87,30.10,10.0,North,3.5,-,N/A,,Clear,350,2012-11-20 07:41:00
2:01 AM,33.8,32.0,93,30.11,10.0,NNW,5.8,-,N/A,,Clear,340,2012-11-20 08:01:00
2:21 AM,33.8,30.2,87,30.13,10.0,NNW,4.6,-,N/A,,Clear,340,2012-11-20 08:21:00
2:41 AM,33.8,32.0,93,30.13,10.0,Calm,Calm,-,N/A,,Clear,0,2012-11-20 08:41:00
3:01 AM,33.8,30.2,87,30.13,10.0,Calm,Calm,-,N/A,,Clear,0,2012-11-20 09:01:00
3:21 AM,32.0,30.2,93,30.13,7.0,NNW,4.6,-,N/A,,Clear,330,2012-11-20 09:21:00
3:41 AM,32.0,28.4,87,30.14,7.0,NNW,4.6,-,N/A,,Clear,340,2012-11-20 09:41:00
4:01 AM,32.0,30.2,93,30.13,7.0,Calm,Calm,-,N/A,,Clear,0,2012-11-20 10:01:00
4:21 AM,32.0,28.4,87,30.13,3.0,Calm,Calm,-,N/A,,Clear,0,2012-11-20 10:21:00
4:41 AM,28.4,26.6,93,30.14,0.5,Calm,Calm,-,N/A,Fog,Light Freezing Fog,0,2012-11-20 10:41:00
5:01 AM,26.6,24.8,93,30.15,0.5,Calm,Calm,-,N/A,Fog,Light Freezing Fog,0,2012-11-20 11:01:00
5:21 AM,30.2,28.4,93,30.14,3.0,Calm,Calm,-,N/A,,Clear,0,2012-11-20 11:21:00
5:41 AM,28.4,26.6,93,30.14,0.2,Calm,Calm,-,N/A,Fog,Light Freezing Fog,0,2012-11-20 11:41:00
6:01 AM,26.6,26.6,100,30.14,0.2,Calm,Calm,-,N/A,Fog,Light Freezing Fog,0,2012-11-20 12:01:00
6:21 AM,24.8,23.0,93,30.14,0.2,Calm,Calm,-,N/A,Fog,Light Freezing Fog,0,2012-11-20 12:21:00
6:41 AM,24.8,23.0,93,30.15,0.2,Calm,Calm,-,N/A,Fog,Light Freezing Fog,0,2012-11-20 12:41:00
7:01 AM,24.8,23.0,93,30.15,0.2,Calm,Calm,-,N/A,Fog,Light Freezing Fog,0,2012-11-20 13:01:00
7:21 AM,23.0,23.0,100,30.16,1.8,Calm,Calm,-,N/A,,Mist,0,2012-11-20 13:21:00
7:41 AM,24.8,23.0,93,30.17,2.0,Calm,Calm,-,N/A,,Clear,0,2012-11-20 13:41:00
8:01 AM,26.6,23.0,86,30.17,0.5,Calm,Calm,-,N/A,Fog,Light Freezing Fog,0,2012-11-20 14:01:00
8:21 AM,26.6,26.6,100,30.17,2.0,Calm,Calm,-,N/A,,Clear,0,2012-11-20 14:21:00
8:41 AM,28.4,26.6,93,30.16,2.5,Calm,Calm,-,N/A,,Clear,0,2012-11-20 14:41:00
9:01 AM,32.0,30.2,93,30.16,2.5,Calm,Calm,-,N/A,,Clear,0,2012-11-20 15:01:00
9:21 AM,32.0,32.0,100,30.16,4.0,Calm,Calm,-,N/A,,Clear,0,2012-11-20 15:21:00
9:41 AM,33.8,32.0,93,30.16,7.0,Calm,Calm,-,N/A,,Clear,0,2012-11-20 15:41:00
10:01 AM,35.6,33.8,93,30.17,7.0,NNW,3.5,-,N/A,,Clear,330,2012-11-20 16:01:00
10:21 AM,35.6,33.8,93,30.17,10.0,Calm,Calm,-,N/A,,Clear,0,2012-11-20 16:21:00
10:41 AM,37.4,33.8,87,30.16,10.0,Calm,Calm,-,N/A,,Clear,0,2012-11-20 16:41:00
11:01 AM,39.2,32.0,75,30.17,10.0,West,3.5,-,N/A,,Clear,260,2012-11-20 17:01:00
11:21 AM,42.8,32.0,66,30.17,10.0,Calm,Calm,-,N/A,,Clear,0,2012-11-20 17:21:00
11:41 AM,44.6,33.8,66,30.16,10.0,Calm,Calm,-,N/A,,Clear,0,2012-11-20 17:41:00
12:01 PM,44.6,32.0,61,30.16,10.0,West,4.6,-,N/A,,Clear,270,2012-11-20 18:01:00
12:21 PM,44.6,32.0,61,30.15,10.0,SSW,3.5,-,N/A,,Clear,210,2012-11-20 18:21:00
12:41 PM,46.4,32.0,57,30.15,10.0,Calm,Calm,-,N/A,,Clear,0,2012-11-20 18:41:00
1:01 PM,48.2,30.2,50,30.14,10.0,West,3.5,-,N/A,,Clear,280,2012-11-20 19:01:00
1:21 PM,50.0,32.0,50,30.14,10.0,SW,3.5,-,N/A,,Clear,230,2012-11-20 19:21:00
1:41 PM,50.0,30.2,47,30.14,10.0,Calm,Calm,-,N/A,,Clear,0,2012-11-20 19:41:00
2:01 PM,50.0,26.6,40,30.13,10.0,Calm,Calm,-,N/A,,Clear,0,2012-11-20 20:01:00
2:21 PM,50.0,26.6,40,30.11,10.0,Calm,Calm,-,N/A,,Clear,0,2012-11-20 20:21:00
2:41 PM,50.0,26.6,40,30.11,10.0,WSW,3.5,-,N/A,,Clear,250,2012-11-20 20:41:00
3:01 PM,50.0,24.8,37,30.10,10.0,SSW,5.8,-,N/A,,Clear,210,2012-11-20 21:01:00
3:21 PM,50.0,28.4,43,30.10,10.0,SSW,4.6,-,N/A,,Clear,200,2012-11-20 21:21:00
3:41 PM,48.2,26.6,43,30.10,10.0,South,3.5,-,N/A,,Clear,180,2012-11-20 21:41:00
4:01 PM,46.4,26.6,46,30.10,10.0,South,4.6,-,N/A,,Clear,180,2012-11-20 22:01:00
4:21 PM,44.6,26.6,49,30.10,10.0,SSE,3.5,-,N/A,,Clear,160,2012-11-20 22:21:00
4:41 PM,44.6,28.4,53,30.10,10.0,SSE,3.5,-,N/A,,Clear,160,2012-11-20 22:41:00
5:01 PM,41.0,26.6,57,30.10,10.0,Calm,Calm,-,N/A,,Clear,0,2012-11-20 23:01:00
5:21 PM,35.6,26.6,70,30.11,10.0,Calm,Calm,-,N/A,,Clear,0,2012-11-20 23:21:00
5:41 PM,33.8,24.8,70,30.11,10.0,Calm,Calm,-,N/A,,Clear,0,2012-11-20 23:41:00
6:01 PM,32.0,23.0,69,30.10,10.0,Calm,Calm,-,N/A,,Clear,0,2012-11-21 00:01:00
6:21 PM,33.8,28.4,81,30.10,10.0,Calm,Calm,-,N/A,,Clear,0,2012-11-21 00:21:00
6:41 PM,33.8,26.6,75,30.08,10.0,SSE,5.8,-,N/A,,Clear,160,2012-11-21 00:41:00
7:01 PM,35.6,28.4,75,30.08,10.0,South,3.5,-,N/A,,Clear,170,2012-11-21 01:01:00
7:21 PM,32.0,24.8,75,30.09,10.0,Calm,Calm,-,N/A,,Clear,0,2012-11-21 01:21:00
7:41 PM,32.0,26.6,80,30.07,10.0,Calm,Calm,-,N/A,,Clear,0,2012-11-21 01:41:00
8:01 PM,32.0,26.6,80,30.07,10.0,Calm,Calm,-,N/A,,Clear,0,2012-11-21 02:01:00
8:21 PM,32.0,26.6,80,30.07,10.0,Calm,Calm,-,N/A,,Clear,0,2012-11-21 02:21:00
8:41 PM,32.0,26.6,80,30.06,10.0,Calm,Calm,-,N/A,,Clear,0,2012-11-21 02:41:00
9:01 PM,30.2,26.6,86,30.05,10.0,Calm,Calm,-,N/A,,Clear,0,2012-11-21 03:01:00
9:21 PM,28.4,23.0,80,30.06,10.0,Calm,Calm,-,N/A,,Clear,0,2012-11-21 03:21:00
9:41 PM,28.4,24.8,86,30.06,10.0,Calm,Calm,-,N/A,,Clear,0,2012-11-21 03:41:00
10:01 PM,28.4,24.8,86,30.06,10.0,Calm,Calm,-,N/A,,Clear,0,2012-11-21 04:01:00
10:21 PM,30.2,26.6,86,30.06,10.0,Calm,Calm,-,N/A,,Clear,0,2012-11-21 04:21:00
10:41 PM,30.2,26.6,86,30.06,10.0,Calm,Calm,-,N/A,,Clear,0,2012-11-21 04:41:00
11:01 PM,26.6,23.0,86,30.05,10.0,Calm,Calm,-,N/A,,Clear,0,2012-11-21 05:01:00
11:21 PM,26.6,23.0,86,30.04,10.0,Calm,Calm,-,N/A,,Clear,0,2012-11-21 05:21:00
11:41 PM,28.4,24.8,86,30.03,10.0,Calm,Calm,-,N/A,,Clear,0,2012-11-21 05:41:00